TimeCST,TemperatureF,Dew PointF,Humidity,Sea Level PressureIn,VisibilityMPH,Wind Direction,Wind SpeedMPH,Gust SpeedMPH,PrecipitationIn,Events,Conditions,WindDirDegrees,DateUTC
12:53 AM,15.1,9.0,77,30.27,10.0,NW,16.1,-,N/A,,Clear,320,2013-01-17 06:53:00
1:53 AM,12.9,6.1,74,30.31,10.0,NW,12.7,-,N/A,,Clear,320,2013-01-17 07:53:00
2:53 AM,10.9,3.9,73,30.33,10.0,NNW,12.7,-,N/A,,Clear,330,2013-01-17 08:53:00
3:53 AM,10.0,3.0,73,30.35,10.0,NNW,12.7,-,N/A,,Clear,330,2013-01-17 09:53:00
4:53 AM,9.0,1.0,70,30.37,10.0,NW,10.4,-,N/A,,Clear,310,2013-01-17 10:53:00
5:53 AM,8.1,1.0,73,30.39,10.0,NW,10.4,-,N/A,,Clear,320,2013-01-17 11:53:00
6:53 AM,7.0,-0.0,73,30.41,10.0,WNW,6.9,-,N/A,,Clear,300,2013-01-17 12:53:00
7:53 AM,8.1,-0.0,70,30.45,10.0,WNW,10.4,-,N/A,,Mostly Cloudy,300,2013-01-17 13:53:00
8:53 AM,10.0,-0.0,64,30.46,10.0,WNW,6.9,-,N/A,,Overcast,300,2013-01-17 14:53:00
9:53 AM,12.9,1.9,62,30.45,10.0,WSW,5.8,-,N/A,,Overcast,250,2013-01-17 15:53:00
10:53 AM,17.1,3.9,56,30.46,10.0,West,6.9,-,N/A,,Overcast,270,2013-01-17 16:53:00
11:53 AM,21.0,3.9,48,30.42,10.0,WSW,3.5,-,N/A,,Scattered Clouds,240,2013-01-17 17:53:00
12:53 PM,26.1,9.0,49,30.42,10.0,West,11.5,-,N/A,,Partly Cloudy,270,2013-01-17 18:53:00
1:46 PM,26.6,12.2,55,30.36,10.0,West,13.8,-,N/A,,Overcast,270,2013-01-17 19:46:00
1:53 PM,28.0,14.0,56,30.42,10.0,WNW,16.1,-,N/A,,Overcast,290,2013-01-17 19:53:00
2:34 PM,28.4,15.8,59,30.35,10.0,NW,13.8,-,N/A,,Scattered Clouds,310,2013-01-17 20:34:00
2:53 PM,28.0,16.0,61,30.40,10.0,NW,11.5,-,N/A,,Clear,320,2013-01-17 20:53:00
3:53 PM,28.9,18.0,64,30.41,10.0,NW,10.4,-,N/A,,Scattered Clouds,320,2013-01-17 21:53:00
4:53 PM,26.1,17.1,69,30.43,10.0,NW,6.9,-,N/A,,Overcast,310,2013-01-17 22:53:00
5:53 PM,24.1,18.0,77,30.43,10.0,WNW,3.5,-,N/A,,Overcast,300,2013-01-17 23:53:00
6:53 PM,21.9,18.0,85,30.44,10.0,NW,3.5,-,N/A,,Scattered Clouds,320,2013-01-18 00:53:00
7:53 PM,23.0,18.0,81,30.43,10.0,Calm,Calm,-,N/A,,Overcast,0,2013-01-18 01:53:00
8:01 PM,23.0,19.4,86,30.37,10.0,Calm,Calm,-,N/A,,Overcast,0,2013-01-18 02:01:00
8:30 PM,24.8,19.4,80,30.37,10.0,Calm,Calm,-,N/A,,Overcast,0,2013-01-18 02:30:00
8:53 PM,25.0,19.0,78,30.42,10.0,Calm,Calm,-,N/A,,Overcast,0,2013-01-18 02:53:00
9:53 PM,25.0,18.0,75,30.40,10.0,Calm,Calm,-,N/A,,Overcast,0,2013-01-18 03:53:00
10:53 PM,24.1,19.0,81,30.37,10.0,SE,3.5,-,N/A,,Overcast,130,2013-01-18 04:53:00
11:53 PM,23.0,18.0,81,30.34,10.0,SSE,6.9,-,N/A,,Scattered Clouds,150,2013-01-18 05:53:00